When you browse on this site, cookies collect data to enhance your experience and personalize the content and advertising you see.
Visit our Privacy Policy to learn more. By continuing to use the site, you agree to this use of cookies and data.
  • In Hungary
  • List of Countries
  • For 7 days
  • Water Temperature
  • Weather Map
  • News
  • Weather Widgets
  • user-avatar
    Login

    Hourly Weather Parwolki

    Today, 17 September, Tuesday

    Time Temperature Precipitation Wind Pressure Humidity
    00:00 +8°C° 0 mm 5 mps 746 mmHg 78%
    01:00 +8°C° 0 mm 5 mps 746 mmHg 80%
    02:00 +8°C° 0 mm 5 mps 745 mmHg 82%
    03:00 +7°C° 0 mm 5 mps 745 mmHg 83%
    04:00 +7°C° 0 mm 5 mps 745 mmHg 85%
    05:00 +8°C° 0.1 mm 5 mps 745 mmHg 84%
    06:00 +8°C° 0.1 mm 5 mps 744 mmHg 83%
    07:00 +9°C° 0 mm 5 mps 745 mmHg 82%
    08:00 +9°C° 0.1 mm 6 mps 744 mmHg 79%
    09:00 +10°C° 0.1 mm 6 mps 744 mmHg 76%
    10:00 +11°C° 0.1 mm 6 mps 743 mmHg 72%
    11:00 +11°C° 0.5 mm 7 mps 743 mmHg 72%
    12:00 +11°C° 0.5 mm 7 mps 742 mmHg 71%
    13:00 +11°C° 0.5 mm 7 mps 742 mmHg 71%
    14:00 +11°C° 0.5 mm 7 mps 741 mmHg 69%
    15:00 +11°C° 0.5 mm 7 mps 741 mmHg 68%
    16:00 +11°C° 0.5 mm 6 mps 740 mmHg 66%
    17:00 +9°C° 0 mm 6 mps 740 mmHg 70%
    18:00 +8°C° 0 mm 5 mps 740 mmHg 73%
    19:00 +7°C° 0 mm 5 mps 739 mmHg 77%
    20:00 +7°C° 0 mm 5 mps 739 mmHg 77%
    21:00 +7°C° 0 mm 6 mps 739 mmHg 78%
    22:00 +5°C° 0 mm 6 mps 738 mmHg 78%
    23:00 +5°C° 0 mm 6 mps 739 mmHg 78%

    Tomorrow, 18 September, Wednesday

    Time Temperature Precipitation Wind Pressure Humidity
    00:00 +5°C° 0 mm 7 mps 739 mmHg 78%
    01:00 +5°C° 0 mm 7 mps 739 mmHg 78%
    02:00 +6°C° 0.4 mm 7 mps 739 mmHg 80%
    03:00 +6°C° 0.4 mm 7 mps 740 mmHg 81%
    04:00 +8°C° 0.4 mm 7 mps 740 mmHg 82%
    05:00 +7°C° 0.9 mm 8 mps 741 mmHg 84%
    06:00 +7°C° 0.9 mm 8 mps 742 mmHg 85%
    07:00 +7°C° 0.9 mm 8 mps 743 mmHg 86%
    08:00 +7°C° 2 mm 8 mps 744 mmHg 85%
    09:00 +9°C° 2 mm 7 mps 745 mmHg 83%
    10:00 +9°C° 2 mm 7 mps 746 mmHg 82%
    11:00 +10°C° 0.3 mm 7 mps 746 mmHg 75%
    12:00 +11°C° 0.3 mm 7 mps 747 mmHg 68%
    13:00 +12°C° 0.3 mm 7 mps 747 mmHg 61%
    14:00 +12°C° 0.1 mm 7 mps 747 mmHg 62%
    15:00 +11°C° 0.1 mm 7 mps 748 mmHg 63%
    16:00 +11°C° 0.1 mm 6 mps 748 mmHg 64%
    17:00 +10°C° 0 mm 5 mps 748 mmHg 70%
    18:00 +8°C° 0 mm 4 mps 749 mmHg 76%
    19:00 +8°C° 0 mm 3 mps 749 mmHg 82%
    20:00 +8°C° 0 mm 3 mps 749 mmHg 84%
    21:00 +7°C° 0 mm 3 mps 749 mmHg 85%
    22:00 +7°C° 0 mm 3 mps 750 mmHg 86%
    23:00 +7°C° 0 mm 3 mps 750 mmHg 88%

    Day after tomorrow, 19 September, Thursday

    Time Temperature Precipitation Wind Pressure Humidity
    00:00 +7°C° 0 mm 3 mps 750 mmHg 91%
    01:00 +5°C° 0 mm 3 mps 750 mmHg 93%
    02:00 +5°C° 0 mm 3 mps 750 mmHg 93%
    03:00 +5°C° 0 mm 3 mps 751 mmHg 94%
    04:00 +5°C° 0 mm 3 mps 751 mmHg 95%
    05:00 +5°C° 0 mm 3 mps 751 mmHg 90%
    06:00 +7°C° 0 mm 3 mps 751 mmHg 86%
    07:00 +8°C° 0 mm 3 mps 752 mmHg 82%
    08:00 +10°C° 0.1 mm 4 mps 752 mmHg 76%
    09:00 +11°C° 0.1 mm 4 mps 752 mmHg 69%
    10:00 +13°C° 0.1 mm 5 mps 753 mmHg 62%
    11:00 +13°C° 0.5 mm 5 mps 753 mmHg 61%
    12:00 +13°C° 0.5 mm 5 mps 753 mmHg 60%
    13:00 +13°C° 0.5 mm 6 mps 753 mmHg 59%
    14:00 +13°C° 0.3 mm 5 mps 753 mmHg 62%
    15:00 +12°C° 0.3 mm 5 mps 753 mmHg 64%
    16:00 +10°C° 0.3 mm 5 mps 753 mmHg 67%
    17:00 +10°C° 0 mm 4 mps 754 mmHg 73%
    18:00 +8°C° 0 mm 4 mps 754 mmHg 79%
    19:00 +7°C° 0 mm 3 mps 754 mmHg 85%
    20:00 +7°C° 0 mm 3 mps 754 mmHg 85%
    21:00 +5°C° 0 mm 3 mps 755 mmHg 85%
    22:00 +6°C° 0 mm 2 mps 755 mmHg 86%
    23:00 +6°C° 0 mm 2 mps 755 mmHg 86%

    20 September, Friday

    Time Temperature Precipitation Wind Pressure Humidity
    00:00 +5°C° 0 mm 2 mps 755 mmHg 86%
    01:00 +5°C° 0 mm 2 mps 755 mmHg 86%
    02:00 +4°C° 0 mm 3 mps 755 mmHg 86%
    03:00 +4°C° 0 mm 3 mps 755 mmHg 87%
    04:00 +4°C° 0 mm 3 mps 755 mmHg 88%
    05:00 +5°C° 0 mm 3 mps 755 mmHg 83%
    06:00 +5°C° 0 mm 3 mps 755 mmHg 77%
    07:00 +6°C° 0 mm 4 mps 755 mmHg 72%
    08:00 +8°C° 0.1 mm 4 mps 755 mmHg 67%
    09:00 +10°C° 0.1 mm 4 mps 756 mmHg 62%
    10:00 +12°C° 0.1 mm 4 mps 756 mmHg 57%
    11:00 +12°C° 0.1 mm 5 mps 756 mmHg 54%
    12:00 +13°C° 0.1 mm 5 mps 756 mmHg 51%
    13:00 +13°C° 0.1 mm 5 mps 756 mmHg 49%
    14:00 +12°C° 0 mm 4 mps 756 mmHg 50%
    15:00 +12°C° 0 mm 4 mps 756 mmHg 51%
    16:00 +11°C° 0 mm 4 mps 756 mmHg 53%
    17:00 +10°C° 0 mm 3 mps 757 mmHg 58%
    18:00 +8°C° 0 mm 2 mps 757 mmHg 63%
    19:00 +8°C° 0 mm 1 mps 757 mmHg 68%
    20:00 +7°C° 0 mm 1 mps 757 mmHg 68%
    21:00 +7°C° 0 mm 1 mps 757 mmHg 69%
    22:00 +6°C° 0 mm 0 mps 758 mmHg 69%
    23:00 +7°C° 0 mm 1 mps 758 mmHg 69%

    21 September, Saturday

    Time Temperature Precipitation Wind Pressure Humidity
    00:00 +6°C° 0 mm 1 mps 758 mmHg 69%
    01:00 +6°C° 0 mm 1 mps 758 mmHg 70%
    02:00 +5°C° 0 mm 2 mps 758 mmHg 70%
    03:00 +5°C° 0 mm 2 mps 758 mmHg 71%
    04:00 +5°C° 0 mm 2 mps 758 mmHg 72%
    05:00 +6°C° 0 mm 2 mps 758 mmHg 71%
    06:00 +6°C° 0 mm 2 mps 758 mmHg 69%
    07:00 +7°C° 0 mm 3 mps 758 mmHg 68%
    08:00 +9°C° 0 mm 3 mps 758 mmHg 65%
    09:00 +11°C° 0 mm 3 mps 758 mmHg 62%
    10:00 +14°C° 0 mm 3 mps 758 mmHg 60%
    11:00 +16°C° 0 mm 3 mps 758 mmHg 58%
    12:00 +17°C° 0 mm 3 mps 758 mmHg 56%
    13:00 +18°C° 0 mm 3 mps 757 mmHg 55%
    14:00 +18°C° 0 mm 3 mps 757 mmHg 58%
    15:00 +18°C° 0 mm 3 mps 757 mmHg 62%
    16:00 +17°C° 0 mm 3 mps 757 mmHg 65%
    17:00 +16°C° 0 mm 2 mps 757 mmHg 72%
    18:00 +14°C° 0 mm 2 mps 757 mmHg 78%
    19:00 +13°C° 0 mm 2 mps 757 mmHg 85%
    20:00 +12°C° 0 mm 2 mps 757 mmHg 86%
    21:00 +12°C° 0 mm 2 mps 757 mmHg 88%
    22:00 +10°C° 0 mm 2 mps 757 mmHg 90%
    23:00 +10°C° 0 mm 2 mps 757 mmHg 90%

    22 September, Sunday

    Time Temperature Precipitation Wind Pressure Humidity
    00:00 +10°C° 0 mm 2 mps 757 mmHg 91%
    01:00 +9°C° 0 mm 2 mps 757 mmHg 91%
    02:00 +9°C° 0 mm 2 mps 757 mmHg 90%
    03:00 +9°C° 0 mm 2 mps 757 mmHg 90%
    04:00 +9°C° 0 mm 2 mps 756 mmHg 89%
    05:00 +9°C° 0 mm 2 mps 756 mmHg 84%
    06:00 +10°C° 0 mm 2 mps 756 mmHg 79%
    07:00 +12°C° 0 mm 2 mps 756 mmHg 74%
    08:00 +14°C° 0 mm 2 mps 756 mmHg 66%
    09:00 +16°C° 0 mm 2 mps 756 mmHg 58%
    10:00 +18°C° 0 mm 3 mps 756 mmHg 50%
    11:00 +19°C° 0 mm 3 mps 756 mmHg 47%
    12:00 +20°C° 0 mm 3 mps 756 mmHg 44%
    13:00 +21°C° 0 mm 3 mps 755 mmHg 41%
    14:00 +21°C° 0 mm 3 mps 755 mmHg 44%
    15:00 +20°C° 0 mm 2 mps 754 mmHg 47%
    16:00 +20°C° 0 mm 2 mps 754 mmHg 50%
    17:00 +18°C° 0 mm 2 mps 754 mmHg 54%
    18:00 +16°C° 0 mm 2 mps 754 mmHg 59%
    19:00 +14°C° 0 mm 3 mps 753 mmHg 64%
    20:00 +13°C° 0 mm 3 mps 753 mmHg 65%
    21:00 +13°C° 0 mm 3 mps 753 mmHg 66%
    22:00 +12°C° 0 mm 3 mps 753 mmHg 66%
    23:00 +12°C° 0 mm 3 mps 753 mmHg 68%
    Show more